When you browse on this site, cookies collect data to enhance your experience and personalize the content and advertising you see.
Visit our Privacy Policy to learn more. By continuing to use the site, you agree to this use of cookies and data.
  • en France
  • Liste des pays
  • À 7 jours
  • Température de l'eau
  • Carte satellitaire
  • Carte météo
  • Widgets météo
  • user-avatar
    Se connecter

    Météo par heure à Sölden

    Ce jour, 14 Décembre, Vendredi

    Heure Température Précipitation Vent Pression Humidité
    00:00 -18°C° 0 mm 2 m/s 572 mmHg 74%
    01:00 -18°C° 0 mm 2 m/s 572 mmHg 73%
    02:00 -16°C° 0 mm 1 m/s 572 mmHg 72%
    03:00 -16°C° 0 mm 1 m/s 572 mmHg 72%
    04:00 -16°C° 0 mm 1 m/s 572 mmHg 71%
    05:00 -16°C° 0 mm 1 m/s 572 mmHg 70%
    06:00 -16°C° 0 mm 1 m/s 572 mmHg 69%
    07:00 -16°C° 0 mm 1 m/s 572 mmHg 68%
    08:00 -15°C° 0 mm 1 m/s 573 mmHg 65%
    09:00 -13°C° 0 mm 1 m/s 574 mmHg 63%
    10:00 -11°C° 0 mm 1 m/s 575 mmHg 60%
    11:00 -10°C° 0 mm 1 m/s 575 mmHg 56%
    12:00 -9°C° 0 mm 0 m/s 576 mmHg 52%
    13:00 -7°C° 0 mm 0 m/s 577 mmHg 48%
    14:00 -9°C° 0 mm 0 m/s 576 mmHg 53%
    15:00 -10°C° 0 mm 0 m/s 575 mmHg 58%
    16:00 -12°C° 0 mm 1 m/s 575 mmHg 64%
    17:00 -13°C° 0 mm 1 m/s 574 mmHg 64%
    18:00 -14°C° 0 mm 1 m/s 574 mmHg 65%
    19:00 -15°C° 0 mm 1 m/s 574 mmHg 66%
    20:00 -15°C° 0 mm 1 m/s 574 mmHg 62%
    21:00 -16°C° 0 mm 1 m/s 574 mmHg 59%
    22:00 -16°C° 0 mm 1 m/s 575 mmHg 56%
    23:00 -18°C° 0 mm 2 m/s 575 mmHg 55%

    Demain, 15 Décembre, Samedi

    Heure Température Précipitation Vent Pression Humidité
    00:00 -18°C° 0 mm 2 m/s 575 mmHg 53%
    01:00 -18°C° 0 mm 2 m/s 575 mmHg 52%
    02:00 -18°C° 0 mm 2 m/s 575 mmHg 52%
    03:00 -19°C° 0 mm 2 m/s 575 mmHg 52%
    04:00 -19°C° 0 mm 2 m/s 575 mmHg 51%
    05:00 -19°C° 0 mm 2 m/s 575 mmHg 52%
    06:00 -19°C° 0 mm 2 m/s 575 mmHg 53%
    07:00 -19°C° 0 mm 2 m/s 575 mmHg 53%
    08:00 -17°C° 0 mm 2 m/s 576 mmHg 55%
    09:00 -16°C° 0 mm 2 m/s 577 mmHg 57%
    10:00 -14°C° 0 mm 2 m/s 578 mmHg 58%
    11:00 -13°C° 0 mm 2 m/s 578 mmHg 57%
    12:00 -10°C° 0 mm 2 m/s 579 mmHg 56%
    13:00 -8°C° 0 mm 1 m/s 579 mmHg 55%
    14:00 -9°C° 0 mm 1 m/s 578 mmHg 60%
    15:00 -10°C° 0 mm 1 m/s 577 mmHg 64%
    16:00 -12°C° 0 mm 1 m/s 577 mmHg 68%
    17:00 -13°C° 0 mm 1 m/s 577 mmHg 66%
    18:00 -13°C° 0 mm 1 m/s 576 mmHg 65%
    19:00 -14°C° 0 mm 1 m/s 576 mmHg 63%
    20:00 -14°C° 0 mm 1 m/s 576 mmHg 59%
    21:00 -14°C° 0 mm 1 m/s 576 mmHg 56%
    22:00 -16°C° 0 mm 2 m/s 576 mmHg 52%
    23:00 -14°C° 0 mm 1 m/s 576 mmHg 49%

    Après-demain, 16 Décembre, Dimanche

    Heure Température Précipitation Vent Pression Humidité
    00:00 -14°C° 0 mm 1 m/s 576 mmHg 47%
    01:00 -14°C° 0 mm 1 m/s 576 mmHg 44%
    02:00 -13°C° 0 mm 1 m/s 576 mmHg 44%
    03:00 -13°C° 0 mm 1 m/s 575 mmHg 43%
    04:00 -13°C° 0 mm 1 m/s 575 mmHg 42%
    05:00 -12°C° 0 mm 1 m/s 576 mmHg 44%
    06:00 -11°C° 0 mm 1 m/s 576 mmHg 46%
    07:00 -10°C° 0 mm 1 m/s 576 mmHg 49%
    08:00 -9°C° 0.1 mm 1 m/s 577 mmHg 53%
    09:00 -8°C° 0.1 mm 1 m/s 577 mmHg 58%
    10:00 -7°C° 0.1 mm 1 m/s 578 mmHg 63%
    11:00 -6°C° 0.1 mm 1 m/s 578 mmHg 62%
    12:00 -4°C° 0.1 mm 1 m/s 578 mmHg 61%
    13:00 -4°C° 0.1 mm 1 m/s 578 mmHg 60%
    14:00 -4°C° 0.2 mm 1 m/s 578 mmHg 63%
    15:00 -6°C° 0.2 mm 1 m/s 577 mmHg 66%
    16:00 -7°C° 0.2 mm 1 m/s 577 mmHg 69%
    17:00 -7°C° 0.5 mm 1 m/s 577 mmHg 72%
    18:00 -7°C° 0.5 mm 1 m/s 577 mmHg 74%
    19:00 -8°C° 0.5 mm 0 m/s 577 mmHg 77%
    20:00 -8°C° 0.8 mm 1 m/s 577 mmHg 81%
    21:00 -8°C° 0.8 mm 1 m/s 578 mmHg 85%
    22:00 -8°C° 0.8 mm 1 m/s 578 mmHg 90%
    23:00 -8°C° 0.4 mm 1 m/s 578 mmHg 90%

    17 Décembre, Lundi

    Heure Température Précipitation Vent Pression Humidité
    00:00 -8°C° 0.4 mm 1 m/s 578 mmHg 90%
    01:00 -8°C° 0.4 mm 1 m/s 578 mmHg 91%
    02:00 -8°C° 0 mm 1 m/s 578 mmHg 90%
    03:00 -9°C° 0 mm 1 m/s 578 mmHg 90%
    04:00 -9°C° 0 mm 1 m/s 578 mmHg 89%
    05:00 -10°C° 0 mm 1 m/s 577 mmHg 87%
    06:00 -11°C° 0 mm 1 m/s 577 mmHg 86%
    07:00 -12°C° 0 mm 1 m/s 577 mmHg 84%
    08:00 -11°C° 0 mm 1 m/s 578 mmHg 80%
    09:00 -9°C° 0 mm 1 m/s 579 mmHg 76%
    10:00 -8°C° 0 mm 1 m/s 580 mmHg 71%
    11:00 -7°C° 0 mm 1 m/s 580 mmHg 68%
    12:00 -6°C° 0 mm 1 m/s 581 mmHg 65%
    13:00 -3°C° 0 mm 1 m/s 581 mmHg 62%
    14:00 -6°C° 0 mm 1 m/s 581 mmHg 67%
    15:00 -7°C° 0 mm 1 m/s 580 mmHg 72%
    16:00 -9°C° 0 mm 1 m/s 580 mmHg 77%
    17:00 -9°C° 0 mm 1 m/s 580 mmHg 78%
    18:00 -10°C° 0 mm 1 m/s 580 mmHg 78%
    19:00 -11°C° 0 mm 1 m/s 580 mmHg 78%
    20:00 -13°C° 0 mm 2 m/s 581 mmHg 78%
    21:00 -13°C° 0 mm 2 m/s 581 mmHg 78%
    22:00 -13°C° 0 mm 2 m/s 581 mmHg 77%
    23:00 -13°C° 0 mm 2 m/s 582 mmHg 77%

    18 Décembre, Mardi

    Heure Température Précipitation Vent Pression Humidité
    00:00 -12°C° 0 mm 2 m/s 582 mmHg 78%
    01:00 -12°C° 0 mm 2 m/s 582 mmHg 78%
    02:00 -13°C° 0 mm 2 m/s 582 mmHg 77%
    03:00 -11°C° 0 mm 1 m/s 582 mmHg 77%
    04:00 -12°C° 0 mm 1 m/s 581 mmHg 76%
    05:00 -12°C° 0 mm 1 m/s 582 mmHg 74%
    06:00 -12°C° 0 mm 1 m/s 582 mmHg 72%
    07:00 -12°C° 0 mm 1 m/s 582 mmHg 69%
    08:00 -11°C° 0 mm 1 m/s 582 mmHg 67%
    09:00 -9°C° 0 mm 1 m/s 583 mmHg 65%
    10:00 -8°C° 0 mm 1 m/s 584 mmHg 63%
    11:00 -7°C° 0 mm 2 m/s 584 mmHg 62%
    12:00 -6°C° 0 mm 2 m/s 584 mmHg 61%
    13:00 -5°C° 0 mm 2 m/s 584 mmHg 60%
    14:00 -6°C° 0 mm 2 m/s 583 mmHg 64%
    15:00 -7°C° 0 mm 2 m/s 583 mmHg 68%
    16:00 -9°C° 0 mm 2 m/s 582 mmHg 71%
    17:00 -9°C° 0 mm 2 m/s 581 mmHg 70%
    18:00 -10°C° 0 mm 2 m/s 581 mmHg 68%
    19:00 -12°C° 0 mm 2 m/s 581 mmHg 67%
    20:00 -12°C° 0 mm 2 m/s 581 mmHg 65%
    21:00 -10°C° 0 mm 2 m/s 581 mmHg 64%
    22:00 -10°C° 0 mm 2 m/s 581 mmHg 63%
    23:00 -10°C° 0 mm 2 m/s 580 mmHg 62%

    19 Décembre, Mercredi

    Heure Température Précipitation Vent Pression Humidité
    00:00 -10°C° 0 mm 2 m/s 580 mmHg 62%
    01:00 -12°C° 0 mm 2 m/s 580 mmHg 62%
    02:00 -12°C° 0 mm 2 m/s 580 mmHg 62%
    03:00 -12°C° 0 mm 2 m/s 580 mmHg 61%
    04:00 -12°C° 0 mm 2 m/s 579 mmHg 61%
    05:00 -12°C° 0 mm 2 m/s 579 mmHg 61%
    06:00 -10°C° 0 mm 1 m/s 579 mmHg 61%
    07:00 -9°C° 0 mm 1 m/s 579 mmHg 61%
    08:00 -9°C° 0 mm 2 m/s 580 mmHg 62%
    09:00 -8°C° 0 mm 2 m/s 580 mmHg 63%
    10:00 -7°C° 0 mm 2 m/s 580 mmHg 65%
    11:00 -6°C° 0 mm 2 m/s 580 mmHg 66%
    12:00 -5°C° 0 mm 2 m/s 580 mmHg 67%
    13:00 -4°C° 0 mm 2 m/s 580 mmHg 68%
    14:00 -5°C° 0.1 mm 2 m/s 579 mmHg 73%
    15:00 -6°C° 0.1 mm 2 m/s 579 mmHg 77%
    16:00 -6°C° 0.1 mm 2 m/s 578 mmHg 81%
    17:00 -7°C° 0.2 mm 2 m/s 578 mmHg 84%
    18:00 -7°C° 0.2 mm 2 m/s 578 mmHg 86%
    19:00 -7°C° 0.2 mm 2 m/s 578 mmHg 88%
    20:00 -7°C° 0.3 mm 2 m/s 578 mmHg 90%
    21:00 -7°C° 0.3 mm 2 m/s 577 mmHg 91%
    22:00 -7°C° 0.3 mm 2 m/s 577 mmHg 92%
    23:00 -7°C° 0.3 mm 2 m/s 577 mmHg 92%
    Voir plus